Location: Branche des Alpilles
(43.6087°N, 4.6976°E)
Time: 17:24:02
(UTC+00:00)

IRS-1C Rocket - Pass Details

Date: 30 November 2020
Orbit: 800 x 806 km, 99.0° (Epoch: 22 January)

Event Time Altitude Azimuth Distance (km) Brightness Sun altitude
Rises 18:02:25 0° 168° (SSE) 3,307 7.3 -20.5°
Reaches altitude 10° 18:04:44 10° 169° (S) 2,380 6.5 -20.9°
Maximum altitude 18:10:00 78° 256° (WSW) 830 4.2 -21.9°
Drops below altitude 10° 18:15:19 10° 343° (NNW) 2,396 6.6 -22.8°
Sets 18:17:40 0° 345° (NNW) 3,331 7.4 -23.2°
